Information on these data can be found in provided Readme document
Contact Info: Zachary Fasnacht (zachary.fasnacht@ssaihq.com); Nickolay Krotkov (nickolay.a.krotkov@nasa.gov); Lok Lamsal (lok.lamsal@nasa.gov)

FillValue: -999.
ScaleFactor: 1e15
Units: molecules/cm^2

Date(yyyy-mm-dd),City,Country,LonCenter,LatCenter,BoundingCoordinates,Median,Q1,Q3,Mean,Baseline_Median,Baseline_Q1,Baseline_Q3,Baseline_Mean,NumGoodSamples,NumTotalSamples
2015-01-01,Tokyo,Japan,139.7501,35.6667,[139.2501 35.1667 140.2501 36.1667],8.441,5.838,13.563,9.843,7.614,4.931,12.56,9.342,178.0,573.0
2015-01-02,Tokyo,Japan,139.7501,35.6667,[139.2501 35.1667 140.2501 36.1667],8.672,5.838,13.563,9.883,7.403,4.87,11.947,8.983,207.0,562.0
2015-01-03,Tokyo,Japan,139.7501,35.6667,[139.2501 35.1667 140.2501 36.1667],8.193,5.654,12.268,9.448,7.397,4.879,12.083,9.069,169.0,564.0
2015-01-04,Tokyo,Japan,139.7501,35.6667,[139.2501 35.1667 140.2501 36.1667],8.321,5.654,12.141,9.35,7.408,4.825,11.612,8.914,200.0,560.0
2015-01-05,Tokyo,Japan,139.7501,35.6667,[139.2501 35.1667 140.2501 36.1667],8.119,5.439,12.071,9.127,7.691,4.89,13.173,9.644,176.0,571.0
2015-01-06,Tokyo,Japan,139.7501,35.6667,[139.2501 35.1667 140.2501 36.1667],8.388,5.654,12.339,9.502,7.894,4.902,13.022,9.64,205.0,569.0
2015-01-07,Tokyo,Japan,139.7501,35.6667,[139.2501 35.1667 140.2501 36.1667],8.975,5.933,13.367,10.766,8.897,5.258,14.264,10.601,235.0,579.0
2015-01-08,Tokyo,Japan,139.7501,35.6667,[139.2501 35.1667 140.2501 36.1667],8.547,5.654,13.046,10.485,9.096,5.385,14.464,10.921,209.0,575.0
2015-01-09,Tokyo,Japan,139.7501,35.6667,[139.2501 35.1667 140.2501 36.1667],8.99,5.933,13.721,11.357,9.645,5.698,14.951,11.403,230.0,566.0
2015-01-10,Tokyo,Japan,139.7501,35.6667,[139.2501 35.1667 140.2501 36.1667],9.999,6.79,15.354,12.331,10.067,5.975,15.524,11.836,208.0,522.0
2015-01-11,Tokyo,Japan,139.7501,35.6667,[139.2501 35.1667 140.2501 36.1667],8.975,5.592,13.41,11.08,10.182,6.735,15.046,11.96,246.0,520.0
2015-01-12,Tokyo,Japan,139.7501,35.6667,[139.2501 35.1667 140.2501 36.1667],8.99,5.122,13.721,11.357,10.365,6.737,15.288,12.202,222.0,529.0
2015-01-13,Tokyo,Japan,139.7501,35.6667,[139.2501 35.1667 140.2501 36.1667],8.975,5.077,13.41,10.848,10.453,6.604,15.701,12.212,221.0,524.0
2015-01-14,Tokyo,Japan,139.7501,35.6667,[139.2501 35.1667 140.2501 36.1667],8.975,5.077,13.41,10.848,10.174,6.202,15.294,11.923,221.0,529.0
2015-01-15,Tokyo,Japan,139.7501,35.6667,[139.2501 35.1667 140.2501 36.1667],9.142,5.122,13.41,10.981,10.029,6.077,15.168,11.69,207.0,531.0
2015-01-16,Tokyo,Japan,139.7501,35.6667,[139.2501 35.1667 140.2501 36.1667],9.142,5.33,13.535,11.011,9.825,6.026,14.825,11.288,231.0,529.0
2015-01-17,Tokyo,Japan,139.7501,35.6667,[139.2501 35.1667 140.2501 36.1667],9.142,5.122,13.535,11.11,9.982,6.038,14.706,11.412,202.0,532.0
2015-01-18,Tokyo,Japan,139.7501,35.6667,[139.2501 35.1667 140.2501 36.1667],9.996,5.447,14.202,11.392,10.124,6.233,14.657,11.374,222.0,521.0
2015-01-19,Tokyo,Japan,139.7501,35.6667,[139.2501 35.1667 140.2501 36.1667],10.115,5.66,14.533,11.895,10.835,6.887,15.615,12.229,191.0,525.0
2015-01-20,Tokyo,Japan,139.7501,35.6667,[139.2501 35.1667 140.2501 36.1667],10.363,6.001,14.891,12.072,10.323,6.269,14.881,11.598,215.0,522.0
2015-01-21,Tokyo,Japan,139.7501,35.6667,[139.2501 35.1667 140.2501 36.1667],10.366,5.87,15.04,12.37,10.873,6.535,16.167,12.229,186.0,535.0
2015-01-22,Tokyo,Japan,139.7501,35.6667,[139.2501 35.1667 140.2501 36.1667],10.282,6.102,14.001,10.815,10.377,6.342,15.106,11.548,183.0,532.0
2015-01-23,Tokyo,Japan,139.7501,35.6667,[139.2501 35.1667 140.2501 36.1667],10.282,6.102,14.001,10.815,10.454,6.303,15.326,11.657,183.0,541.0
2015-01-24,Tokyo,Japan,139.7501,35.6667,[139.2501 35.1667 140.2501 36.1667],9.996,5.87,12.84,9.848,10.848,6.323,15.653,11.988,162.0,537.0
2015-01-25,Tokyo,Japan,139.7501,35.6667,[139.2501 35.1667 140.2501 36.1667],9.157,5.263,12.559,9.475,10.949,6.446,15.739,12.082,187.0,568.0
2015-01-26,Tokyo,Japan,139.7501,35.6667,[139.2501 35.1667 140.2501 36.1667],10.363,6.293,13.772,10.481,11.529,6.804,16.294,12.699,149.0,566.0
2015-01-27,Tokyo,Japan,139.7501,35.6667,[139.2501 35.1667 140.2501 36.1667],10.43,7.679,14.227,10.915,11.349,7.199,16.193,12.539,187.0,563.0
2015-01-28,Tokyo,Japan,139.7501,35.6667,[139.2501 35.1667 140.2501 36.1667],11.19,8.051,14.392,11.536,10.997,7.128,16.415,12.603,158.0,572.0
2015-01-29,Tokyo,Japan,139.7501,35.6667,[139.2501 35.1667 140.2501 36.1667],11.19,8.051,14.392,11.536,11.602,7.507,16.526,12.855,158.0,566.0
2015-01-30,Tokyo,Japan,139.7501,35.6667,[139.2501 35.1667 140.2501 36.1667],11.451,8.112,14.836,12.075,11.706,7.343,16.764,13.027,186.0,572.0
2015-01-31,Tokyo,Japan,139.7501,35.6667,[139.2501 35.1667 140.2501 36.1667],11.451,8.112,14.786,12.048,11.648,7.449,16.602,12.983,167.0,577.0
2015-02-01,Tokyo,Japan,139.7501,35.6667,[139.2501 35.1667 140.2501 36.1667],11.451,8.112,14.786,12.048,11.49,7.64,16.787,13.148,167.0,573.0
2015-02-02,Tokyo,Japan,139.7501,35.6667,[139.2501 35.1667 140.2501 36.1667],11.054,8.051,14.392,11.717,11.924,7.808,17.56,13.705,147.0,575.0
2015-02-03,Tokyo,Japan,139.7501,35.6667,[139.2501 35.1667 140.2501 36.1667],11.321,8.047,14.847,12.411,10.968,7.566,16.459,13.019,176.0,563.0
2015-02-04,Tokyo,Japan,139.7501,35.6667,[139.2501 35.1667 140.2501 36.1667],10.485,7.639,14.836,12.242,10.827,7.547,16.29,13.056,152.0,567.0
2015-02-05,Tokyo,Japan,139.7501,35.6667,[139.2501 35.1667 140.2501 36.1667],12.266,8.051,16.226,13.165,11.027,7.466,16.064,12.931,188.0,563.0
2015-02-06,Tokyo,Japan,139.7501,35.6667,[139.2501 35.1667 140.2501 36.1667],12.921,7.796,18.306,13.939,11.794,7.705,17.682,13.685,161.0,575.0
2015-02-07,Tokyo,Japan,139.7501,35.6667,[139.2501 35.1667 140.2501 36.1667],10.123,7.323,15.56,12.358,11.107,7.452,16.758,13.155,191.0,572.0
2015-02-08,Tokyo,Japan,139.7501,35.6667,[139.2501 35.1667 140.2501 36.1667],9.781,6.827,15.539,12.14,10.722,7.145,15.955,12.477,221.0,581.0
2015-02-09,Tokyo,Japan,139.7501,35.6667,[139.2501 35.1667 140.2501 36.1667],11.321,7.583,15.715,12.761,11.133,7.456,16.367,12.786,196.0,577.0
2015-02-10,Tokyo,Japan,139.7501,35.6667,[139.2501 35.1667 140.2501 36.1667],11.321,7.583,15.715,12.761,10.927,7.417,16.448,12.69,196.0,565.0
2015-02-11,Tokyo,Japan,139.7501,35.6667,[139.2501 35.1667 140.2501 36.1667],9.781,7.244,18.081,12.84,10.598,6.923,17.288,12.808,158.0,523.0
2015-02-12,Tokyo,Japan,139.7501,35.6667,[139.2501 35.1667 140.2501 36.1667],11.423,7.839,16.767,12.947,10.767,6.676,16.783,12.56,189.0,520.0
2015-02-13,Tokyo,Japan,139.7501,35.6667,[139.2501 35.1667 140.2501 36.1667],11.423,7.839,16.767,12.947,11.08,6.998,17.11,12.756,189.0,531.0
2015-02-14,Tokyo,Japan,139.7501,35.6667,[139.2501 35.1667 140.2501 36.1667],11.336,7.998,16.387,12.852,10.961,6.957,16.996,12.698,184.0,527.0
2015-02-15,Tokyo,Japan,139.7501,35.6667,[139.2501 35.1667 140.2501 36.1667],11.423,8.006,17.526,12.926,11.215,7.071,17.42,12.887,179.0,530.0
2015-02-16,Tokyo,Japan,139.7501,35.6667,[139.2501 35.1667 140.2501 36.1667],11.423,8.006,17.526,12.926,11.02,6.851,17.142,12.643,179.0,532.0
2015-02-17,Tokyo,Japan,139.7501,35.6667,[139.2501 35.1667 140.2501 36.1667],11.601,8.006,17.892,13.195,10.334,6.518,16.412,12.04,188.0,529.0
2015-02-18,Tokyo,Japan,139.7501,35.6667,[139.2501 35.1667 140.2501 36.1667],11.336,8.006,15.895,12.748,10.388,6.57,16.046,12.088,159.0,533.0
2015-02-19,Tokyo,Japan,139.7501,35.6667,[139.2501 35.1667 140.2501 36.1667],11.336,8.006,15.895,12.748,10.6,6.664,15.904,12.112,159.0,521.0
2015-02-20,Tokyo,Japan,139.7501,35.6667,[139.2501 35.1667 140.2501 36.1667],10.179,7.81,14.456,11.709,10.404,6.726,15.588,11.99,123.0,523.0
2015-02-21,Tokyo,Japan,139.7501,35.6667,[139.2501 35.1667 140.2501 36.1667],9.211,7.377,12.589,10.795,9.546,6.363,14.047,11.003,160.0,520.0
2015-02-22,Tokyo,Japan,139.7501,35.6667,[139.2501 35.1667 140.2501 36.1667],11.243,8.101,13.514,11.907,9.784,6.399,14.478,11.092,130.0,533.0
2015-02-23,Tokyo,Japan,139.7501,35.6667,[139.2501 35.1667 140.2501 36.1667],10.159,7.388,13.152,11.259,9.396,6.279,14.095,10.886,131.0,530.0
2015-02-24,Tokyo,Japan,139.7501,35.6667,[139.2501 35.1667 140.2501 36.1667],10.159,7.388,13.152,11.259,9.524,6.401,13.623,10.804,131.0,541.0
2015-02-25,Tokyo,Japan,139.7501,35.6667,[139.2501 35.1667 140.2501 36.1667],10.159,7.388,13.152,11.259,9.255,6.261,13.523,10.686,131.0,541.0
2015-02-26,Tokyo,Japan,139.7501,35.6667,[139.2501 35.1667 140.2501 36.1667],10.594,7.416,14.098,11.726,9.614,6.504,14.095,10.897,155.0,571.0
2015-02-27,Tokyo,Japan,139.7501,35.6667,[139.2501 35.1667 140.2501 36.1667],9.631,6.562,12.988,11.289,9.623,6.654,14.159,11.134,124.0,570.0
2015-02-28,Tokyo,Japan,139.7501,35.6667,[139.2501 35.1667 140.2501 36.1667],9.631,6.562,12.988,11.289,9.392,6.437,13.802,10.804,124.0,566.0
2015-03-01,Tokyo,Japan,139.7501,35.6667,[139.2501 35.1667 140.2501 36.1667],8.604,5.927,11.995,10.193,9.333,6.431,13.948,10.948,101.0,574.0
2015-03-02,Tokyo,Japan,139.7501,35.6667,[139.2501 35.1667 140.2501 36.1667],8.604,5.927,11.995,10.193,9.27,6.398,14.004,10.971,101.0,569.0
2015-03-03,Tokyo,Japan,139.7501,35.6667,[139.2501 35.1667 140.2501 36.1667],8.603,5.83,11.995,10.03,9.426,6.522,14.434,11.513,113.0,576.0
2015-03-04,Tokyo,Japan,139.7501,35.6667,[139.2501 35.1667 140.2501 36.1667],8.603,5.83,11.406,9.423,9.903,6.769,14.895,11.66,110.0,579.0
2015-03-05,Tokyo,Japan,139.7501,35.6667,[139.2501 35.1667 140.2501 36.1667],8.898,6.268,12.485,10.681,9.709,6.77,14.361,11.627,137.0,573.0
2015-03-06,Tokyo,Japan,139.7501,35.6667,[139.2501 35.1667 140.2501 36.1667],8.898,6.268,12.485,10.681,9.744,6.811,15.557,12.15,137.0,576.0
2015-03-07,Tokyo,Japan,139.7501,35.6667,[139.2501 35.1667 140.2501 36.1667],8.898,6.268,12.485,10.681,9.686,6.691,15.648,12.226,137.0,565.0
2015-03-08,Tokyo,Japan,139.7501,35.6667,[139.2501 35.1667 140.2501 36.1667],9.631,6.557,15.205,12.18,9.922,6.74,16.233,12.537,100.0,567.0
2015-03-09,Tokyo,Japan,139.7501,35.6667,[139.2501 35.1667 140.2501 36.1667],9.631,6.559,14.759,12.219,10.123,6.722,16.688,12.784,102.0,563.0
2015-03-10,Tokyo,Japan,139.7501,35.6667,[139.2501 35.1667 140.2501 36.1667],13.673,9.138,19.952,16.3,11.306,7.705,16.815,13.485,71.0,576.0
2015-03-11,Tokyo,Japan,139.7501,35.6667,[139.2501 35.1667 140.2501 36.1667],13.652,8.93,19.952,16.159,11.323,7.175,15.904,12.991,72.0,573.0
2015-03-12,Tokyo,Japan,139.7501,35.6667,[139.2501 35.1667 140.2501 36.1667],13.652,8.93,19.952,16.159,10.993,7.02,15.948,12.83,72.0,581.0
2015-03-13,Tokyo,Japan,139.7501,35.6667,[139.2501 35.1667 140.2501 36.1667],13.339,8.397,21.346,15.776,11.038,7.112,16.187,12.933,48.0,578.0
2015-03-14,Tokyo,Japan,139.7501,35.6667,[139.2501 35.1667 140.2501 36.1667],11.829,7.925,15.61,14.68,10.424,6.769,15.275,12.249,53.0,566.0
2015-03-15,Tokyo,Japan,139.7501,35.6667,[139.2501 35.1667 140.2501 36.1667],11.829,7.925,15.61,14.68,10.129,6.725,15.301,12.143,53.0,523.0
2015-03-16,Tokyo,Japan,139.7501,35.6667,[139.2501 35.1667 140.2501 36.1667],11.74,8.164,21.346,15.454,10.023,6.779,15.64,12.045,64.0,522.0
2015-03-17,Tokyo,Japan,139.7501,35.6667,[139.2501 35.1667 140.2501 36.1667],11.74,8.164,21.346,15.454,10.164,6.737,15.47,12.165,64.0,532.0
2015-03-18,Tokyo,Japan,139.7501,35.6667,[139.2501 35.1667 140.2501 36.1667],10.008,8.267,13.652,12.8,10.095,6.92,14.814,11.768,81.0,528.0
2015-03-19,Tokyo,Japan,139.7501,35.6667,[139.2501 35.1667 140.2501 36.1667],10.424,8.267,14.703,13.093,10.477,7.027,15.139,12.04,106.0,534.0
2015-03-20,Tokyo,Japan,139.7501,35.6667,[139.2501 35.1667 140.2501 36.1667],9.958,7.714,13.424,11.616,10.826,7.068,15.859,12.567,82.0,539.0
2015-03-21,Tokyo,Japan,139.7501,35.6667,[139.2501 35.1667 140.2501 36.1667],10.424,8.267,16.94,14.226,10.996,6.955,16.131,12.704,104.0,535.0
2015-03-22,Tokyo,Japan,139.7501,35.6667,[139.2501 35.1667 140.2501 36.1667],10.424,8.267,16.94,14.226,11.085,7.047,16.607,12.796,104.0,533.0
2015-03-23,Tokyo,Japan,139.7501,35.6667,[139.2501 35.1667 140.2501 36.1667],10.857,8.267,16.356,13.779,11.454,7.598,17.0,13.247,134.0,520.0
2015-03-24,Tokyo,Japan,139.7501,35.6667,[139.2501 35.1667 140.2501 36.1667],10.772,7.992,16.356,13.782,11.471,7.473,16.355,13.058,132.0,522.0
2015-03-25,Tokyo,Japan,139.7501,35.6667,[139.2501 35.1667 140.2501 36.1667],10.772,7.992,16.356,13.782,11.736,7.518,16.262,13.141,132.0,517.0
2015-03-26,Tokyo,Japan,139.7501,35.6667,[139.2501 35.1667 140.2501 36.1667],10.814,8.039,16.356,13.823,11.612,7.651,16.103,13.185,131.0,527.0
2015-03-27,Tokyo,Japan,139.7501,35.6667,[139.2501 35.1667 140.2501 36.1667],10.814,8.039,16.356,13.823,10.963,7.874,15.903,13.084,131.0,528.0
2015-03-28,Tokyo,Japan,139.7501,35.6667,[139.2501 35.1667 140.2501 36.1667],10.814,8.039,16.356,13.823,11.092,7.959,16.094,13.052,131.0,537.0
2015-03-29,Tokyo,Japan,139.7501,35.6667,[139.2501 35.1667 140.2501 36.1667],10.857,8.267,16.373,14.046,11.386,8.382,16.143,13.347,126.0,536.0
2015-03-30,Tokyo,Japan,139.7501,35.6667,[139.2501 35.1667 140.2501 36.1667],11.74,8.267,17.77,15.409,11.425,7.941,16.454,13.445,145.0,564.0
2015-03-31,Tokyo,Japan,139.7501,35.6667,[139.2501 35.1667 140.2501 36.1667],11.604,8.267,17.146,15.219,11.356,7.813,16.33,13.404,134.0,560.0
2015-04-01,Tokyo,Japan,139.7501,35.6667,[139.2501 35.1667 140.2501 36.1667],11.604,8.267,17.146,15.219,11.301,7.817,16.186,13.312,134.0,556.0
2015-04-02,Tokyo,Japan,139.7501,35.6667,[139.2501 35.1667 140.2501 36.1667],16.093,9.565,26.217,18.705,11.615,7.295,16.746,13.16,105.0,565.0
2015-04-03,Tokyo,Japan,139.7501,35.6667,[139.2501 35.1667 140.2501 36.1667],16.214,9.565,29.691,19.644,11.371,7.064,17.139,13.089,74.0,564.0
2015-04-04,Tokyo,Japan,139.7501,35.6667,[139.2501 35.1667 140.2501 36.1667],16.356,10.506,29.691,19.778,11.205,7.038,16.571,12.648,72.0,570.0
2015-04-05,Tokyo,Japan,139.7501,35.6667,[139.2501 35.1667 140.2501 36.1667],13.068,7.992,19.065,16.555,10.284,6.394,14.978,11.975,53.0,573.0
2015-04-06,Tokyo,Japan,139.7501,35.6667,[139.2501 35.1667 140.2501 36.1667],13.068,7.992,19.065,16.555,10.751,6.914,16.107,12.312,53.0,574.0
2015-04-07,Tokyo,Japan,139.7501,35.6667,[139.2501 35.1667 140.2501 36.1667],19.065,10.79,37.038,23.367,10.196,6.451,15.466,11.659,23.0,576.0
2015-04-08,Tokyo,Japan,139.7501,35.6667,[139.2501 35.1667 140.2501 36.1667],15.312,9.928,29.691,20.07,9.92,6.647,15.226,11.553,29.0,564.0
2015-04-09,Tokyo,Japan,139.7501,35.6667,[139.2501 35.1667 140.2501 36.1667],15.312,9.928,29.691,20.07,9.673,6.253,15.18,11.415,29.0,568.0
2015-04-10,Tokyo,Japan,139.7501,35.6667,[139.2501 35.1667 140.2501 36.1667],11.813,7.304,28.894,17.555,9.49,6.013,15.452,11.387,33.0,564.0
2015-04-11,Tokyo,Japan,139.7501,35.6667,[139.2501 35.1667 140.2501 36.1667],10.54,6.101,22.575,16.014,9.867,5.788,15.834,11.642,44.0,569.0
2015-04-12,Tokyo,Japan,139.7501,35.6667,[139.2501 35.1667 140.2501 36.1667],10.54,6.101,22.575,16.014,9.876,5.717,15.356,11.612,44.0,568.0
2015-04-13,Tokyo,Japan,139.7501,35.6667,[139.2501 35.1667 140.2501 36.1667],10.54,6.101,22.575,16.014,9.947,6.132,16.306,11.804,44.0,578.0
2015-04-14,Tokyo,Japan,139.7501,35.6667,[139.2501 35.1667 140.2501 36.1667],7.304,4.327,9.767,7.137,9.964,6.124,16.109,11.301,25.0,580.0
2015-04-15,Tokyo,Japan,139.7501,35.6667,[139.2501 35.1667 140.2501 36.1667],7.304,4.377,9.928,7.591,9.893,5.851,16.051,11.134,31.0,569.0
2015-04-16,Tokyo,Japan,139.7501,35.6667,[139.2501 35.1667 140.2501 36.1667],7.304,4.377,9.928,7.591,9.85,5.747,15.84,11.06,31.0,527.0
2015-04-17,Tokyo,Japan,139.7501,35.6667,[139.2501 35.1667 140.2501 36.1667],8.032,4.377,12.948,8.959,9.661,5.75,15.929,11.234,51.0,501.0
2015-04-18,Tokyo,Japan,139.7501,35.6667,[139.2501 35.1667 140.2501 36.1667],8.032,4.377,12.948,8.959,9.534,5.683,15.17,11.081,51.0,505.0
2015-04-19,Tokyo,Japan,139.7501,35.6667,[139.2501 35.1667 140.2501 36.1667],7.876,4.825,9.895,8.221,9.34,5.596,14.659,10.721,80.0,499.0
2015-04-20,Tokyo,Japan,139.7501,35.6667,[139.2501 35.1667 140.2501 36.1667],7.877,4.847,10.502,8.889,9.323,5.474,13.898,10.61,110.0,504.0
2015-04-21,Tokyo,Japan,139.7501,35.6667,[139.2501 35.1667 140.2501 36.1667],7.877,5.034,11.237,9.558,8.094,4.799,11.946,9.381,134.0,505.0
2015-04-22,Tokyo,Japan,139.7501,35.6667,[139.2501 35.1667 140.2501 36.1667],7.929,5.034,11.525,9.628,7.992,4.816,11.914,9.346,138.0,504.0
2015-04-23,Tokyo,Japan,139.7501,35.6667,[139.2501 35.1667 140.2501 36.1667],7.877,4.825,11.237,9.56,7.787,4.726,11.847,9.242,139.0,511.0
2015-04-24,Tokyo,Japan,139.7501,35.6667,[139.2501 35.1667 140.2501 36.1667],8.253,5.326,12.455,10.114,7.691,4.855,11.729,9.306,168.0,501.0
2015-04-25,Tokyo,Japan,139.7501,35.6667,[139.2501 35.1667 140.2501 36.1667],8.419,5.467,12.702,10.27,7.941,4.879,11.511,9.259,164.0,506.0
2015-04-26,Tokyo,Japan,139.7501,35.6667,[139.2501 35.1667 140.2501 36.1667],7.519,5.034,10.783,9.162,7.489,4.771,11.009,8.91,189.0,504.0
2015-04-27,Tokyo,Japan,139.7501,35.6667,[139.2501 35.1667 140.2501 36.1667],7.519,5.034,10.783,9.162,7.53,4.742,10.535,8.654,189.0,517.0
2015-04-28,Tokyo,Japan,139.7501,35.6667,[139.2501 35.1667 140.2501 36.1667],7.445,4.928,10.464,8.809,6.844,4.483,9.956,8.001,209.0,514.0
2015-04-29,Tokyo,Japan,139.7501,35.6667,[139.2501 35.1667 140.2501 36.1667],7.445,4.825,10.464,8.728,6.741,4.466,9.695,7.783,228.0,521.0
2015-04-30,Tokyo,Japan,139.7501,35.6667,[139.2501 35.1667 140.2501 36.1667],7.462,4.825,11.002,9.143,6.776,4.475,9.713,7.844,240.0,519.0
2015-05-01,Tokyo,Japan,139.7501,35.6667,[139.2501 35.1667 140.2501 36.1667],7.737,5.034,11.897,9.479,6.687,4.37,9.968,7.78,263.0,550.0
2015-05-02,Tokyo,Japan,139.7501,35.6667,[139.2501 35.1667 140.2501 36.1667],7.499,5.048,11.229,9.403,6.545,4.309,9.589,7.567,243.0,571.0
2015-05-03,Tokyo,Japan,139.7501,35.6667,[139.2501 35.1667 140.2501 36.1667],7.219,4.584,9.895,8.671,6.521,4.246,9.443,7.568,280.0,611.0
2015-05-04,Tokyo,Japan,139.7501,35.6667,[139.2501 35.1667 140.2501 36.1667],7.005,4.549,10.816,8.926,6.373,4.111,9.71,7.521,250.0,639.0
2015-05-05,Tokyo,Japan,139.7501,35.6667,[139.2501 35.1667 140.2501 36.1667],6.864,4.545,10.056,8.666,6.296,4.025,9.24,7.311,217.0,634.0
2015-05-06,Tokyo,Japan,139.7501,35.6667,[139.2501 35.1667 140.2501 36.1667],6.836,4.549,9.343,8.32,6.58,4.351,9.285,7.47,226.0,642.0
2015-05-07,Tokyo,Japan,139.7501,35.6667,[139.2501 35.1667 140.2501 36.1667],6.899,4.536,10.164,8.548,6.634,4.238,9.312,7.436,245.0,648.0
2015-05-08,Tokyo,Japan,139.7501,35.6667,[139.2501 35.1667 140.2501 36.1667],7.078,4.584,11.229,8.96,6.562,4.248,9.536,7.504,266.0,640.0
2015-05-09,Tokyo,Japan,139.7501,35.6667,[139.2501 35.1667 140.2501 36.1667],6.836,4.477,9.639,8.491,6.429,4.206,9.053,7.287,237.0,641.0
2015-05-10,Tokyo,Japan,139.7501,35.6667,[139.2501 35.1667 140.2501 36.1667],6.802,4.312,9.343,8.26,6.396,4.114,9.018,7.206,264.0,631.0
2015-05-11,Tokyo,Japan,139.7501,35.6667,[139.2501 35.1667 140.2501 36.1667],7.029,4.477,11.594,8.969,6.439,4.121,9.554,7.314,228.0,633.0
2015-05-12,Tokyo,Japan,139.7501,35.6667,[139.2501 35.1667 140.2501 36.1667],7.029,4.477,11.594,8.969,6.407,4.097,9.647,7.437,228.0,627.0
2015-05-13,Tokyo,Japan,139.7501,35.6667,[139.2501 35.1667 140.2501 36.1667],7.383,4.477,12.007,9.45,6.282,4.143,9.586,7.483,216.0,638.0
2015-05-14,Tokyo,Japan,139.7501,35.6667,[139.2501 35.1667 140.2501 36.1667],8.666,5.456,12.019,9.803,6.654,4.394,9.988,7.829,229.0,635.0
2015-05-15,Tokyo,Japan,139.7501,35.6667,[139.2501 35.1667 140.2501 36.1667],8.55,5.252,11.7,9.321,6.898,4.439,10.169,7.927,237.0,646.0
2015-05-16,Tokyo,Japan,139.7501,35.6667,[139.2501 35.1667 140.2501 36.1667],8.216,4.912,11.594,9.079,6.841,4.639,10.301,8.081,237.0,644.0
2015-05-17,Tokyo,Japan,139.7501,35.6667,[139.2501 35.1667 140.2501 36.1667],8.55,4.912,11.575,9.092,7.076,4.707,10.354,8.219,252.0,633.0
2015-05-18,Tokyo,Japan,139.7501,35.6667,[139.2501 35.1667 140.2501 36.1667],9.189,6.522,12.238,10.189,6.983,4.923,10.312,8.243,215.0,572.0
2015-05-19,Tokyo,Japan,139.7501,35.6667,[139.2501 35.1667 140.2501 36.1667],9.28,7.09,12.211,10.134,7.278,5.284,10.465,8.447,253.0,553.0
2015-05-20,Tokyo,Japan,139.7501,35.6667,[139.2501 35.1667 140.2501 36.1667],9.28,7.09,12.211,10.134,7.153,5.149,10.339,8.3,253.0,562.0
2015-05-21,Tokyo,Japan,139.7501,35.6667,[139.2501 35.1667 140.2501 36.1667],9.28,6.996,12.211,10.124,7.008,5.015,10.317,8.226,227.0,556.0
2015-05-22,Tokyo,Japan,139.7501,35.6667,[139.2501 35.1667 140.2501 36.1667],9.217,7.029,12.019,9.97,6.95,5.026,10.305,8.202,204.0,559.0
2015-05-23,Tokyo,Japan,139.7501,35.6667,[139.2501 35.1667 140.2501 36.1667],9.166,6.204,11.7,9.358,7.236,5.054,10.453,8.312,198.0,566.0
2015-05-24,Tokyo,Japan,139.7501,35.6667,[139.2501 35.1667 140.2501 36.1667],9.049,5.822,11.32,9.094,7.267,4.962,10.542,8.356,223.0,563.0
2015-05-25,Tokyo,Japan,139.7501,35.6667,[139.2501 35.1667 140.2501 36.1667],9.166,6.132,12.019,9.538,7.168,5.005,10.703,8.41,217.0,564.0
2015-05-26,Tokyo,Japan,139.7501,35.6667,[139.2501 35.1667 140.2501 36.1667],9.125,5.822,12.019,9.421,7.345,4.969,10.885,8.459,232.0,556.0
2015-05-27,Tokyo,Japan,139.7501,35.6667,[139.2501 35.1667 140.2501 36.1667],9.125,5.822,12.019,9.421,7.127,4.842,10.47,8.215,232.0,559.0
2015-05-28,Tokyo,Japan,139.7501,35.6667,[139.2501 35.1667 140.2501 36.1667],8.888,5.804,11.163,8.925,7.505,4.979,10.62,8.329,254.0,555.0
2015-05-29,Tokyo,Japan,139.7501,35.6667,[139.2501 35.1667 140.2501 36.1667],7.605,5.241,10.818,8.559,7.036,4.786,10.457,8.194,222.0,567.0
2015-05-30,Tokyo,Japan,139.7501,35.6667,[139.2501 35.1667 140.2501 36.1667],7.583,5.241,10.794,8.537,6.883,4.633,10.343,7.927,196.0,562.0
2015-05-31,Tokyo,Japan,139.7501,35.6667,[139.2501 35.1667 140.2501 36.1667],7.522,5.227,10.324,8.21,6.833,4.586,10.25,7.827,199.0,569.0
2015-06-01,Tokyo,Japan,139.7501,35.6667,[139.2501 35.1667 140.2501 36.1667],7.432,5.241,10.054,8.119,6.638,4.412,10.093,7.642,188.0,568.0
2015-06-02,Tokyo,Japan,139.7501,35.6667,[139.2501 35.1667 140.2501 36.1667],7.432,5.241,10.054,8.119,6.706,4.484,9.976,7.589,188.0,575.0
2015-06-03,Tokyo,Japan,139.7501,35.6667,[139.2501 35.1667 140.2501 36.1667],6.13,4.813,8.914,7.414,6.313,4.268,9.701,7.356,150.0,595.0
2015-06-04,Tokyo,Japan,139.7501,35.6667,[139.2501 35.1667 140.2501 36.1667],6.707,4.819,10.288,7.967,6.516,4.356,10.151,7.675,158.0,635.0
2015-06-05,Tokyo,Japan,139.7501,35.6667,[139.2501 35.1667 140.2501 36.1667],6.851,5.106,9.746,7.829,6.463,4.393,9.709,7.534,151.0,644.0
2015-06-06,Tokyo,Japan,139.7501,35.6667,[139.2501 35.1667 140.2501 36.1667],6.851,5.027,10.483,7.768,6.465,4.435,10.03,7.553,165.0,639.0
2015-06-07,Tokyo,Japan,139.7501,35.6667,[139.2501 35.1667 140.2501 36.1667],7.037,5.241,10.324,7.85,6.46,4.391,9.465,7.352,143.0,643.0
2015-06-08,Tokyo,Japan,139.7501,35.6667,[139.2501 35.1667 140.2501 36.1667],7.068,5.227,10.946,8.533,6.47,4.435,9.632,7.562,137.0,645.0
2015-06-09,Tokyo,Japan,139.7501,35.6667,[139.2501 35.1667 140.2501 36.1667],7.068,5.241,10.601,8.339,6.551,4.499,10.016,7.767,116.0,641.0
2015-06-10,Tokyo,Japan,139.7501,35.6667,[139.2501 35.1667 140.2501 36.1667],7.0,5.521,10.483,8.392,6.365,4.577,9.443,7.543,101.0,640.0
2015-06-11,Tokyo,Japan,139.7501,35.6667,[139.2501 35.1667 140.2501 36.1667],7.0,5.521,10.483,8.392,6.594,4.658,9.785,7.804,101.0,628.0
2015-06-12,Tokyo,Japan,139.7501,35.6667,[139.2501 35.1667 140.2501 36.1667],8.251,5.027,11.641,9.428,6.687,4.543,9.639,7.798,71.0,630.0
2015-06-13,Tokyo,Japan,139.7501,35.6667,[139.2501 35.1667 140.2501 36.1667],7.503,4.75,11.271,8.581,6.549,4.471,9.461,7.639,92.0,624.0
2015-06-14,Tokyo,Japan,139.7501,35.6667,[139.2501 35.1667 140.2501 36.1667],7.503,4.75,11.271,8.581,6.727,4.559,10.19,7.919,92.0,637.0
2015-06-15,Tokyo,Japan,139.7501,35.6667,[139.2501 35.1667 140.2501 36.1667],7.037,4.956,11.371,8.612,6.621,4.598,10.084,7.757,72.0,635.0
2015-06-16,Tokyo,Japan,139.7501,35.6667,[139.2501 35.1667 140.2501 36.1667],7.047,4.81,11.844,9.105,6.755,4.658,10.416,7.985,86.0,641.0
2015-06-17,Tokyo,Japan,139.7501,35.6667,[139.2501 35.1667 140.2501 36.1667],7.503,4.956,11.844,9.431,6.947,4.665,10.616,8.129,113.0,637.0
2015-06-18,Tokyo,Japan,139.7501,35.6667,[139.2501 35.1667 140.2501 36.1667],7.685,5.184,11.844,9.608,6.99,4.736,10.776,8.311,130.0,602.0